DLH72P EDDF-EKCH

Flight info

Callsign DLH72P
Flight time 1h 3m
Altitude 37000
Route MARUN3W/25C MARUN Y150 TOLGI DCT SAS DCT MAKEL N851 GESKA Z711 MONAK
Aircraft A320/M-SDE3FGHIRWY/LB1

Departure

Time 2026-05-04 16:34
Airport Frankfurt Main Airport (EDDF)

Arrival

Time 2026-05-04 17:37
Airport Copenhagen Kastrup Airport (EKCH)
Time Latitude Longitude Altitude Speed Heading
2026-05-04 16:02 50.04785 8.56771 356 ft 0 kts 114°
2026-05-04 16:23 50.04786 8.56769 356 ft 2 kts 114°
2026-05-04 16:24 50.04797 8.56684 358 ft 4 kts 203°
2026-05-04 16:25 50.04781 8.56673 361 ft 0 kts 202°
2026-05-04 16:27 50.04729 8.56604 360 ft 13 kts 233°
2026-05-04 16:28 50.04599 8.56155 363 ft 19 kts 249°
2026-05-04 16:28 50.04339 8.55932 358 ft 16 kts 160°
2026-05-04 16:29 50.04136 8.56318 354 ft 20 kts 68°
2026-05-04 16:30 50.04277 8.56904 361 ft 21 kts 71°
2026-05-04 16:31 50.04364 8.57269 364 ft 21 kts 69°
2026-05-04 16:31 50.04262 8.57645 365 ft 18 kts 245°
2026-05-04 16:32 50.04255 8.57616 362 ft 0 kts 249°
2026-05-04 16:33 50.03983 8.56480 356 ft 127 kts 250°
2026-05-04 16:34 50.03272 8.53263 1200 ft 178 kts 251°
2026-05-04 16:34 50.02823 8.51365 1790 ft 198 kts 251°
2026-05-04 16:35 49.99447 8.47804 4309 ft 215 kts 188°
2026-05-04 16:35 49.95167 8.46654 7053 ft 213 kts 197°
2026-05-04 16:36 49.93674 8.45956 7577 ft 230 kts 197°
2026-05-04 16:36 49.91129 8.43347 9654 ft 222 kts 237°
2026-05-04 16:37 49.90825 8.38546 11162 ft 248 kts 287°
2026-05-04 16:37 49.91868 8.36300 11732 ft 270 kts 319°
2026-05-04 16:37 49.95367 8.33853 13236 ft 291 kts 335°
2026-05-04 16:38 49.99406 8.31234 13822 ft 339 kts 335°
2026-05-04 16:39 50.07065 8.29448 14558 ft 404 kts
2026-05-04 16:39 50.12548 8.31826 15800 ft 415 kts 18°
2026-05-04 16:40 50.18084 8.34735 17037 ft 425 kts 18°
2026-05-04 16:40 50.23744 8.37700 18258 ft 434 kts 17°
2026-05-04 16:41 50.29522 8.40726 19306 ft 441 kts 17°
2026-05-04 16:41 50.38303 8.45483 20870 ft 451 kts 18°
2026-05-04 16:42 50.47283 8.50444 22359 ft 461 kts 18°
2026-05-04 16:43 50.53427 8.53551 23283 ft 467 kts 15°
2026-05-04 16:43 50.59700 8.56442 24101 ft 472 kts 14°
2026-05-04 16:43 50.62868 8.57901 24491 ft 475 kts 15°
2026-05-04 16:44 50.75328 8.65493 25880 ft 487 kts 25°
2026-05-04 16:45 50.81414 8.70334 26555 ft 492 kts 26°
2026-05-04 16:46 50.90615 8.77710 27517 ft 499 kts 26°
2026-05-04 16:46 50.96849 8.82701 28134 ft 504 kts 25°
2026-05-04 16:47 51.03116 8.87735 28888 ft 505 kts 25°
2026-05-04 16:47 51.09386 8.92799 29730 ft 505 kts 25°
2026-05-04 16:48 51.18763 9.00376 30898 ft 502 kts 25°
2026-05-04 16:48 51.21873 9.02899 31277 ft 501 kts 25°
2026-05-04 16:49 51.28074 9.07951 32073 ft 499 kts 25°
2026-05-04 16:49 51.34250 9.13000 32820 ft 498 kts 25°
2026-05-04 16:50 51.40404 9.18044 33590 ft 496 kts 25°
2026-05-04 16:50 51.46534 9.23072 34311 ft 494 kts 25°
2026-05-04 16:51 51.52652 9.28116 34983 ft 493 kts 25°
2026-05-04 16:51 51.55698 9.30633 35330 ft 492 kts 25°
2026-05-04 16:51 51.61778 9.35662 35999 ft 490 kts 25°
2026-05-04 16:52 51.67822 9.40682 36640 ft 488 kts 25°
2026-05-04 16:52 51.70844 9.43202 36880 ft 489 kts 25°
2026-05-04 16:53 51.76852 9.48214 36951 ft 489 kts 25°
2026-05-04 16:54 51.88947 9.58277 36962 ft 488 kts 24°
2026-05-04 16:55 52.07147 9.73362 36964 ft 490 kts 24°
2026-05-04 16:56 52.22311 9.86092 36968 ft 491 kts 24°
2026-05-04 16:57 52.31454 9.93708 36962 ft 492 kts 23°
2026-05-04 16:58 52.43676 10.03762 36964 ft 492 kts 23°
2026-05-04 17:00 52.61980 10.19036 36972 ft 492 kts 23°
2026-05-04 17:01 52.77209 10.31848 36987 ft 492 kts 23°
2026-05-04 17:02 52.89376 10.42154 36994 ft 490 kts 23°
2026-05-04 17:03 52.98475 10.49887 36991 ft 490 kts 23°
2026-05-04 17:03 53.07561 10.57678 36991 ft 490 kts 23°
2026-05-04 17:04 53.19674 10.68116 36988 ft 490 kts 23°
2026-05-04 17:05 53.31777 10.78587 37005 ft 489 kts 24°
2026-05-04 17:06 53.40809 10.86460 36998 ft 487 kts 24°
2026-05-04 17:07 53.48812 10.93470 36987 ft 487 kts 24°
2026-05-04 17:07 53.55786 10.99595 37008 ft 486 kts 24°
2026-05-04 17:08 53.64751 11.07512 37003 ft 485 kts 24°
2026-05-04 17:09 53.70715 11.12806 37006 ft 484 kts 24°
2026-05-04 17:09 53.76674 11.18091 37013 ft 483 kts 24°
2026-05-04 17:10 53.91513 11.31344 37015 ft 482 kts 24°
2026-05-04 17:11 53.97435 11.36671 37022 ft 482 kts 24°
2026-05-04 17:11 54.03358 11.42014 36909 ft 483 kts 24°
2026-05-04 17:12 54.06324 11.44696 36645 ft 483 kts 24°
2026-05-04 17:12 54.11294 11.49196 36210 ft 483 kts 24°
2026-05-04 17:13 54.20163 11.57276 35438 ft 485 kts 23°
2026-05-04 17:14 54.29148 11.65491 34502 ft 487 kts 23°
2026-05-04 17:14 54.32137 11.68230 34263 ft 488 kts 23°
2026-05-04 17:14 54.38088 11.73691 33757 ft 489 kts 22°
2026-05-04 17:15 54.41097 11.76452 33474 ft 490 kts 22°
2026-05-04 17:15 54.47147 11.81952 32967 ft 492 kts 21°
2026-05-04 17:16 54.53353 11.86931 31920 ft 493 kts 18°
2026-05-04 17:16 54.62735 11.95187 28501 ft 512 kts 27°
2026-05-04 17:17 54.65671 11.98530 27187 ft 500 kts 27°
2026-05-04 17:17 54.74201 12.08234 23356 ft 480 kts 29°
2026-05-04 17:18 54.76959 12.11370 21982 ft 468 kts 29°
2026-05-04 17:18 54.82229 12.17390 20020 ft 438 kts 30°
2026-05-04 17:19 54.86949 12.22851 19642 ft 379 kts 29°
2026-05-04 17:19 54.91138 12.27690 18783 ft 351 kts 29°
2026-05-04 17:20 54.95176 12.32319 17388 ft 343 kts 29°
2026-05-04 17:20 54.99119 12.36861 16020 ft 337 kts 29°
2026-05-04 17:20 55.01060 12.39107 15378 ft 333 kts 29°
2026-05-04 17:21 55.04905 12.43575 14460 ft 331 kts 29°
2026-05-04 17:21 55.08715 12.48001 13815 ft 327 kts 29°
2026-05-04 17:22 55.10606 12.50195 13476 ft 325 kts 29°
2026-05-04 17:22 55.12482 12.52379 13123 ft 323 kts 29°
2026-05-04 17:23 55.18026 12.58871 12110 ft 316 kts 29°
2026-05-04 17:23 55.19848 12.61008 11842 ft 314 kts 30°
2026-05-04 17:23 55.23535 12.65051 11540 ft 309 kts 19°
2026-05-04 17:24 55.25545 12.66307 11149 ft 306 kts 13°
2026-05-04 17:24 55.31586 12.69726 10093 ft 298 kts 13°
2026-05-04 17:25 55.33522 12.70831 9590 ft 295 kts 13°
2026-05-04 17:25 55.37390 12.73041 8825 ft 290 kts 13°
2026-05-04 17:26 55.41206 12.75220 8277 ft 287 kts 13°
2026-05-04 17:26 55.46860 12.78469 7419 ft 282 kts 14°
2026-05-04 17:27 55.50569 12.80600 6618 ft 278 kts 14°
2026-05-04 17:27 55.54221 12.82708 5803 ft 274 kts 14°
2026-05-04 17:28 55.57777 12.84931 5158 ft 264 kts 18°
2026-05-04 17:29 55.62517 12.88553 4584 ft 238 kts 20°
2026-05-04 17:29 55.66971 12.92162 3996 ft 227 kts 20°
2026-05-04 17:30 55.71113 12.94998 4008 ft 209 kts
2026-05-04 17:31 55.73976 12.95924 4008 ft 209 kts
2026-05-04 17:31 55.76887 12.92231 3991 ft 193 kts 271°
2026-05-04 17:32 55.75942 12.87774 3557 ft 202 kts 231°
2026-05-04 17:33 55.72810 12.82743 2773 ft 193 kts 225°
2026-05-04 17:33 55.71816 12.81195 2495 ft 187 kts 225°
2026-05-04 17:34 55.69074 12.76921 1796 ft 159 kts 226°
2026-05-04 17:34 55.68251 12.75639 1565 ft 156 kts 225°
2026-05-04 17:35 55.65968 12.72090 951 ft 126 kts 225°
2026-05-04 17:35 55.64712 12.70137 600 ft 115 kts 226°
2026-05-04 17:35 55.64111 12.69198 435 ft 115 kts 226°
2026-05-04 17:36 55.63503 12.68256 296 ft 117 kts 226°
2026-05-04 17:36 55.62892 12.67307 156 ft 117 kts 226°
2026-05-04 17:36 55.62283 12.66357 27 ft 114 kts 227°
2026-05-04 17:36 55.61771 12.65549 19 ft 77 kts 220°
2026-05-04 17:37 55.61471 12.65089 18 ft 47 kts 223°
2026-05-04 17:37 55.61291 12.64770 22 ft 33 kts 236°
2026-05-04 17:37 55.61222 12.64441 18 ft 26 kts 251°
2026-05-04 17:37 55.61204 12.64138 17 ft 25 kts 311°
2026-05-04 17:38 55.61349 12.64193 21 ft 24 kts 32°
2026-05-04 17:38 55.61502 12.64369 25 ft 28 kts 32°
2026-05-04 17:38 55.61649 12.64531 23 ft 7 kts 32°
2026-05-04 17:38 55.61662 12.64546 24 ft 0 kts 33°
2026-05-04 17:39 55.61663 12.64546 24 ft 0 kts 33°
2026-05-04 17:39 55.61675 12.64558 23 ft 10 kts 27°
2026-05-04 17:40 55.61794 12.64545 24 ft 22 kts 351°
2026-05-04 17:40 55.61951 12.64510 21 ft 24 kts
2026-05-04 17:40 55.62055 12.64596 20 ft 0 kts 34°
2026-05-04 17:41 55.62083 12.64629 21 ft 15 kts 34°
2026-05-04 17:42 55.62168 12.64593 22 ft 13 kts 301°
2026-05-04 17:42 55.62227 12.64425 18 ft 19 kts 302°
2026-05-04 17:42 55.62306 12.64211 16 ft 23 kts 303°
2026-05-04 17:42 55.62395 12.63967 18 ft 24 kts 302°
2026-05-04 17:43 55.62497 12.63789 22 ft 19 kts 343°
2026-05-04 17:43 55.62561 12.63770 23 ft 0 kts 358°
2026-05-04 17:44 55.62562 12.63770 23 ft 2 kts
2026-05-04 17:44 55.62610 12.63785 24 ft 8 kts 15°
2026-05-04 17:44 55.62654 12.63821 26 ft 7 kts 31°
2026-05-04 17:44 55.62705 12.63878 22 ft 13 kts 32°
2026-05-04 17:45 55.62797 12.63983 19 ft 17 kts 37°
2026-05-04 17:45 55.62831 12.64157 21 ft 15 kts 115°
2026-05-04 17:45 55.62812 12.64220 21 ft 2 kts 119°
2026-05-04 17:45 55.62810 12.64224 20 ft 0 kts 121°